EW5206 Weather Reports


time (UTC)temp
C
wind
direction
speed
KPH
gust
KPH
rain 1hr
cm
rain 24hr
cm
rain mn
cm
humidity
%
barometer
mb
20260504044554 9 0.0 0.0 0.00 0.00 0.00 54 1017.0
20260504043057 9 0.0 0.0 0.00 0.00 0.00 53 1016.9
20260504041549 9 0.0 0.0 0.00 0.00 0.00 52 1016.8
20260504040047 9 0.0 0.0 0.00 0.00 0.00 52 1016.7
20260504034548 9 0.0 0.0 0.00 0.00 0.00 52 1016.8
20260504033046 9 0.0 0.0 0.00 0.00 0.00 52 1017.0
20260504031548 10 0.0 0.0 0.00 0.00 0.00 50 1016.9
20260504030045 10 0.0 0.0 0.00 0.00 0.00 49 1017.0
20260504024548 10 0.0 0.0 0.00 0.00 0.00 49 1016.9
20260504023045 10 0.0 0.0 0.00 0.00 0.00 49 1017.0
20260504021544 10 0.0 0.0 0.00 0.00 0.00 48 1017.1
20260504020124 10 0.0 0.0 0.00 0.00 0.00 46 1017.0
20260504014558 10 0.0 0.0 0.00 0.00 0.00 45 1016.7
20260504013055 11 0.0 0.0 0.00 0.00 0.00 43 1016.6
20260504011546 11 0.0 0.0 0.00 0.00 0.00 40 1016.6
20260504010044 11 0.0 0.0 0.00 0.00 0.00 39 1016.3
20260504004608 11 0.0 0.0 0.00 0.00 0.00 37 1016.2
20260504003048 12 0.0 0.0 0.00 0.00 0.00 37 1016.2
20260504001610 12 0.0 0.0 0.00 0.00 0.00 33 1016.0
20260504000044 13 0.0 0.0 0.00 0.00 0.00 32 1015.8
20260503234539 13 0.0 0.0 0.00 0.00 0.00 32 1015.9
20260503233042 14 0.0 0.0 0.00 0.00 0.00 31 1015.9
20260503231539 14 0.0 0.0 0.00 0.00 0.00 30 1015.9
20260503230047 15 0.0 0.0 0.00 0.00 0.00 30 1015.8
20260503224538 15 0.0 0.0 0.00 0.00 0.00 29 1015.8
20260503223038 15 0.0 0.0 0.00 0.00 0.00 30 1015.9
20260503221537 15 0.0 0.0 0.00 0.00 0.00 29 1016.0
20260503220044 15 0.0 0.0 0.00 0.00 0.00 29 1016.1
20260503214536 15 0.0 0.0 0.00 0.00 0.00 27 1016.2
20260503213036 15 0.0 0.0 0.00 0.00 0.00 29 1016.2
20260503211535 15 0.0 0.0 0.00 0.00 0.00 28 1016.4
20260503210034 15 0.0 0.0 0.00 0.00 0.00 28 1016.3
20260503204535 15 0.0 0.0 0.00 0.00 0.00 29 1016.5
20260503203046 15 0.0 0.0 0.00 0.00 0.00 28 1016.6
20260503201535 15 0.0 0.0 0.00 0.00 0.00 29 1016.7
20260503200032 15 0.0 0.0 0.00 0.00 0.00 29 1017.0
20260503194540 15 0.0 0.0 0.00 0.00 0.00 28 1017.2
20260503193037 15 0.0 0.0 0.00 0.00 0.00 28 1017.4
20260503191531 15 0.0 0.0 0.00 0.00 0.00 29 1017.6
20260503190038 15 0.0 0.0 0.00 0.00 0.00 28 1017.8
20260503184530 15 0.0 0.0 0.00 0.00 0.00 31 1018.0
20260503183031 15 0.0 0.0 0.00 0.00 0.00 29 1018.3
20260503181529 15 0.0 0.0 0.00 0.00 0.00 29 1018.4
20260503180033 15 0.0 0.0 0.00 0.00 0.00 29 1018.5
20260503174528 16 0.0 0.0 0.00 0.00 0.00 30 1018.6
20260503173027 16 0.0 0.0 0.00 0.00 0.00 29 1018.7
20260503171526 16 0.0 0.0 0.00 0.00 0.00 31 1019.0
20260503081523 4 0.0 0.0 0.00 0.00 0.00 65 1016.6